TimeEST,TemperatureF,Dew PointF,Humidity,Sea Level PressureIn,VisibilityMPH,Wind Direction,Wind SpeedMPH,Gust SpeedMPH,PrecipitationIn,Events,Conditions,WindDirDegrees,DateUTC
12:23 AM,19.4,17.6,93,29.97,10.0,NW,4.6,-,N/A,,Overcast,320,2012-12-29 05:23:00
12:54 AM,19.9,17.1,89,30.00,10.0,NW,3.5,-,N/A,,Overcast,320,2012-12-29 05:54:00
1:54 AM,21.9,18.0,85,29.97,10.0,Calm,Calm,-,N/A,,Overcast,0,2012-12-29 06:54:00
2:54 AM,21.9,19.0,89,29.98,10.0,Calm,Calm,-,N/A,,Overcast,0,2012-12-29 07:54:00
3:01 AM,21.2,19.4,93,29.93,10.0,WNW,3.5,-,N/A,,Overcast,300,2012-12-29 08:01:00
3:54 AM,23.0,19.9,88,29.96,9.0,NNW,5.8,-,N/A,,Overcast,330,2012-12-29 08:54:00
4:44 AM,24.8,21.2,86,29.91,5.0,North,8.1,-,0.01,Snow,Light Snow,350,2012-12-29 09:44:00
4:54 AM,24.1,21.9,91,29.94,4.0,North,6.9,-,0.01,Snow,Light Snow,360,2012-12-29 09:54:00
5:54 AM,25.0,21.0,85,29.94,10.0,NNE,10.4,-,0.00,,Overcast,20,2012-12-29 10:54:00
6:54 AM,24.1,21.0,88,29.94,6.0,NE,8.1,-,0.00,Snow,Light Snow,40,2012-12-29 11:54:00
7:54 AM,24.1,21.0,88,29.94,10.0,NNE,9.2,-,0.00,,Overcast,20,2012-12-29 12:54:00
8:42 AM,24.8,21.2,86,29.90,7.0,NNE,6.9,-,0.00,Snow,Light Snow,20,2012-12-29 13:42:00
8:54 AM,24.1,21.0,88,29.94,8.0,NNE,6.9,-,0.00,,Overcast,20,2012-12-29 13:54:00
9:54 AM,24.1,21.0,88,29.93,9.0,NNE,8.1,-,0.00,,Overcast,20,2012-12-29 14:54:00
10:54 AM,24.1,19.9,84,29.94,10.0,North,9.2,-,N/A,,Overcast,10,2012-12-29 15:54:00
11:45 AM,24.8,19.4,80,29.88,9.0,North,10.4,-,0.00,,Overcast,360,2012-12-29 16:45:00
11:54 AM,25.0,19.9,81,29.92,7.0,North,8.1,-,0.00,,Overcast,10,2012-12-29 16:54:00
12:24 PM,24.8,19.4,80,29.87,5.0,North,10.4,-,0.00,Snow,Light Snow,350,2012-12-29 17:24:00
12:54 PM,25.0,19.9,81,29.90,10.0,North,11.5,-,0.00,,Overcast,360,2012-12-29 17:54:00
1:54 PM,25.0,19.0,78,29.90,9.0,NNW,6.9,-,N/A,,Overcast,330,2012-12-29 18:54:00
2:54 PM,24.1,18.0,77,29.91,10.0,NW,10.4,-,0.00,,Overcast,320,2012-12-29 19:54:00
3:54 PM,23.0,16.0,74,29.93,10.0,NNW,11.5,-,N/A,,Overcast,340,2012-12-29 20:54:00
4:54 PM,23.0,16.0,74,29.94,10.0,NW,10.4,-,N/A,,Overcast,320,2012-12-29 21:54:00
5:54 PM,21.0,15.1,78,29.97,10.0,WNW,6.9,-,N/A,,Partly Cloudy,290,2012-12-29 22:54:00
6:54 PM,19.9,14.0,78,29.97,10.0,West,6.9,-,N/A,,Overcast,280,2012-12-29 23:54:00
7:08 PM,19.4,14.0,80,29.94,10.0,West,5.8,-,N/A,,Overcast,280,2012-12-30 00:08:00
7:54 PM,19.9,14.0,78,29.99,10.0,West,6.9,-,N/A,,Overcast,280,2012-12-30 00:54:00
8:54 PM,21.0,14.0,74,29.99,10.0,West,5.8,-,N/A,,Overcast,270,2012-12-30 01:54:00
9:54 PM,19.0,14.0,81,30.00,10.0,West,4.6,-,N/A,,Mostly Cloudy,280,2012-12-30 02:54:00
10:31 PM,19.4,15.8,86,29.97,10.0,West,6.9,-,N/A,,Overcast,280,2012-12-30 03:31:00
10:44 PM,19.4,15.8,86,29.97,10.0,WNW,5.8,-,N/A,,Mostly Cloudy,290,2012-12-30 03:44:00
10:54 PM,19.9,15.1,81,30.01,10.0,WNW,5.8,-,N/A,,Mostly Cloudy,290,2012-12-30 03:54:00
11:01 PM,19.4,15.8,86,29.98,10.0,WNW,6.9,-,N/A,,Scattered Clouds,290,2012-12-30 04:01:00
11:54 PM,19.9,15.1,81,30.02,10.0,WNW,5.8,-,N/A,,Scattered Clouds,290,2012-12-30 04:54:00